Time,TemperatureF,DewpointF,PressureIn,WindDirection,WindDirectionDegrees,WindSpeedMPH,WindSpeedGustMPH,Humidity,HourlyPrecipIn,Conditions,Clouds,dailyrainin,SoftwareType,DateUTC
2013-05-13 00:02:00,53.0,41.0,30.08,South,175,2.0,7.0,64,0.00,,,0.00,,2013-05-13 05:02:00,
2013-05-13 00:12:00,53.0,41.0,30.08,South,175,2.0,7.0,64,0.00,,,0.00,,2013-05-13 05:12:00,
2013-05-13 00:21:00,52.0,41.0,30.07,South,183,0.0,5.0,65,0.00,,,0.00,,2013-05-13 05:21:00,
2013-05-13 00:32:00,52.0,41.0,30.07,South,181,2.0,8.0,66,0.00,,,0.00,,2013-05-13 05:32:00,
2013-05-13 00:42:00,52.0,41.0,30.07,South,181,2.0,8.0,66,0.00,,,0.00,,2013-05-13 05:42:00,
2013-05-13 00:52:00,52.0,41.0,30.07,South,177,1.0,6.0,67,0.00,,,0.00,,2013-05-13 05:52:00,
2013-05-13 01:01:00,52.0,41.0,30.07,South,169,2.0,7.0,67,0.00,,,0.00,,2013-05-13 06:01:00,
2013-05-13 01:11:00,52.0,41.0,30.07,South,169,2.0,7.0,67,0.00,,,0.00,,2013-05-13 06:11:00,
2013-05-13 01:21:00,52.0,41.0,30.07,South,180,1.0,7.0,67,0.00,,,0.00,,2013-05-13 06:21:00,
2013-05-13 01:31:00,52.0,41.0,30.06,SSW,192,2.0,8.0,67,0.00,,,0.00,,2013-05-13 06:31:00,
2013-05-13 01:42:00,52.0,41.0,30.06,SSW,192,2.0,8.0,67,0.00,,,0.00,,2013-05-13 06:42:00,
2013-05-13 01:52:00,51.0,41.0,30.06,South,173,1.0,7.0,68,0.00,,,0.00,,2013-05-13 06:52:00,
2013-05-13 02:01:00,51.0,42.0,30.06,South,187,2.0,9.0,70,0.00,,,0.00,,2013-05-13 07:01:00,
2013-05-13 02:11:00,51.0,42.0,30.06,South,187,2.0,9.0,70,0.00,,,0.00,,2013-05-13 07:11:00,
2013-05-13 02:22:00,50.0,41.0,30.06,South,172,2.0,7.0,71,0.00,,,0.00,,2013-05-13 07:22:00,
2013-05-13 02:31:00,50.0,41.0,30.06,South,175,0.0,5.0,72,0.00,,,0.00,,2013-05-13 07:31:00,
2013-05-13 02:41:00,50.0,41.0,30.06,South,175,0.0,5.0,72,0.00,,,0.00,,2013-05-13 07:41:00,
2013-05-13 02:52:00,50.0,42.0,30.05,ESE,109,2.0,5.0,73,0.00,,,0.00,,2013-05-13 07:52:00,
2013-05-13 03:02:00,50.0,42.0,30.05,West,261,1.0,7.0,74,0.00,,,0.00,,2013-05-13 08:02:00,
2013-05-13 03:11:00,50.0,42.0,30.05,West,261,1.0,7.0,74,0.00,,,0.00,,2013-05-13 08:11:00,
2013-05-13 03:21:00,49.0,41.0,30.05,South,186,1.0,6.0,75,0.00,,,0.00,,2013-05-13 08:21:00,
2013-05-13 03:31:00,49.0,41.0,30.04,South,178,1.0,5.0,75,0.00,,,0.00,,2013-05-13 08:31:00,
2013-05-13 03:42:00,49.0,41.0,30.04,South,178,1.0,5.0,75,0.00,,,0.00,,2013-05-13 08:42:00,
2013-05-13 03:52:00,49.0,42.0,30.04,South,180,0.0,5.0,76,0.00,,,0.00,,2013-05-13 08:52:00,
2013-05-13 04:01:00,48.0,41.0,30.03,South,179,0.0,3.0,77,0.00,,,0.00,,2013-05-13 09:01:00,
2013-05-13 04:11:00,48.0,41.0,30.03,South,179,0.0,3.0,77,0.00,,,0.00,,2013-05-13 09:11:00,
2013-05-13 04:21:00,48.0,41.0,30.03,South,177,0.0,4.0,78,0.00,,,0.00,,2013-05-13 09:21:00,
2013-05-13 04:33:00,48.0,41.0,30.03,South,177,1.0,4.0,78,0.00,,,0.00,,2013-05-13 09:33:00,
2013-05-13 04:42:00,48.0,41.0,30.03,South,177,1.0,4.0,78,0.00,,,0.00,,2013-05-13 09:42:00,
2013-05-13 04:52:00,48.0,42.0,30.03,South,176,1.0,6.0,79,0.00,,,0.00,,2013-05-13 09:52:00,
2013-05-13 05:03:00,48.0,42.0,30.03,South,174,0.0,3.0,79,0.00,,,0.00,,2013-05-13 10:03:00,
2013-05-13 05:12:00,48.0,42.0,30.03,South,174,0.0,3.0,79,0.00,,,0.00,,2013-05-13 10:12:00,
2013-05-13 05:22:00,47.0,41.0,30.02,South,183,0.0,4.0,80,0.00,,,0.00,,2013-05-13 10:22:00,
2013-05-13 05:32:00,48.0,42.0,30.02,South,172,1.0,6.0,80,0.00,,,0.00,,2013-05-13 10:32:00,
2013-05-13 05:42:00,48.0,42.0,30.02,South,172,1.0,6.0,80,0.00,,,0.00,,2013-05-13 10:42:00,
2013-05-13 05:52:00,47.0,41.0,30.02,South,173,1.0,7.0,80,0.00,,,0.00,,2013-05-13 10:52:00,
2013-05-13 06:02:00,47.0,41.0,30.01,SW,232,2.0,6.0,81,0.00,,,0.00,,2013-05-13 11:02:00,
2013-05-13 06:12:00,47.0,41.0,30.01,SW,232,2.0,6.0,81,0.00,,,0.00,,2013-05-13 11:12:00,
2013-05-13 06:21:00,47.0,41.0,30.01,South,186,1.0,6.0,81,0.00,,,0.00,,2013-05-13 11:21:00,
2013-05-13 06:32:00,46.0,41.0,30.01,South,186,1.0,5.0,82,0.00,,,0.00,,2013-05-13 11:32:00,
2013-05-13 06:42:00,46.0,41.0,30.01,South,186,1.0,5.0,82,0.00,,,0.00,,2013-05-13 11:42:00,
2013-05-13 06:52:00,47.0,42.0,30.01,South,179,1.0,6.0,82,0.00,,,0.00,,2013-05-13 11:52:00,
2013-05-13 07:01:00,46.0,41.0,30.02,South,175,1.0,5.0,82,0.00,,,0.00,,2013-05-13 12:01:00,
2013-05-13 07:11:00,46.0,41.0,30.02,South,175,1.0,5.0,82,0.00,,,0.00,,2013-05-13 12:11:00,
2013-05-13 07:21:00,47.0,42.0,30.01,SSW,198,0.0,4.0,82,0.00,,,0.00,,2013-05-13 12:21:00,
2013-05-13 07:32:00,47.0,42.0,30.01,South,178,1.0,6.0,82,0.00,,,0.00,,2013-05-13 12:32:00,
2013-05-13 07:42:00,47.0,42.0,30.01,South,178,1.0,6.0,82,0.00,,,0.00,,2013-05-13 12:42:00,
2013-05-13 07:52:00,48.0,42.0,30.02,South,178,0.0,10.0,81,0.00,,,0.00,,2013-05-13 12:52:00,
2013-05-13 08:01:00,49.0,43.0,30.02,South,183,1.0,7.0,79,0.00,,,0.00,,2013-05-13 13:01:00,
2013-05-13 08:11:00,49.0,43.0,30.02,South,183,1.0,7.0,79,0.00,,,0.00,,2013-05-13 13:11:00,
2013-05-13 08:21:00,51.0,44.0,30.02,SW,215,2.0,8.0,76,0.00,,,0.00,,2013-05-13 13:21:00,
2013-05-13 08:31:00,52.0,44.0,30.02,South,170,0.0,7.0,73,0.00,,,0.00,,2013-05-13 13:31:00,
2013-05-13 08:41:00,52.0,44.0,30.02,South,170,0.0,7.0,73,0.00,,,0.00,,2013-05-13 13:41:00,
2013-05-13 08:52:00,53.0,44.0,30.02,SSW,198,1.0,6.0,72,0.00,,,0.00,,2013-05-13 13:52:00,
2013-05-13 09:02:00,56.0,46.0,30.02,WSW,252,1.0,6.0,68,0.00,,,0.00,,2013-05-13 14:02:00,
2013-05-13 09:11:00,56.0,46.0,30.02,WSW,252,1.0,6.0,68,0.00,,,0.00,,2013-05-13 14:11:00,
2013-05-13 09:22:00,56.0,45.0,30.02,South,184,1.0,9.0,66,0.00,,,0.00,,2013-05-13 14:22:00,
2013-05-13 09:31:00,57.0,46.0,30.02,SW,215,3.0,9.0,66,0.00,,,0.00,,2013-05-13 14:31:00,
2013-05-13 09:41:00,57.0,46.0,30.02,SW,215,3.0,9.0,66,0.00,,,0.00,,2013-05-13 14:41:00,
2013-05-13 09:52:00,60.0,47.0,30.00,SW,216,1.0,8.0,62,0.00,,,0.00,,2013-05-13 14:52:00,
2013-05-13 10:01:00,61.0,47.0,30.00,South,179,4.0,9.0,60,0.00,,,0.00,,2013-05-13 15:01:00,
2013-05-13 10:11:00,61.0,47.0,30.00,South,179,4.0,9.0,60,0.00,,,0.00,,2013-05-13 15:11:00,
2013-05-13 10:21:00,62.0,47.0,30.00,SE,138,2.0,9.0,57,0.00,,,0.00,,2013-05-13 15:21:00,
2013-05-13 10:31:00,64.0,47.0,30.00,South,188,3.0,8.0,55,0.00,,,0.00,,2013-05-13 15:31:00,
2013-05-13 10:42:00,64.0,47.0,30.00,South,188,3.0,8.0,55,0.00,,,0.00,,2013-05-13 15:42:00,
2013-05-13 10:53:00,66.0,48.0,29.99,South,174,3.0,8.0,52,0.00,,,0.00,,2013-05-13 15:53:00,
2013-05-13 11:03:00,67.0,47.0,29.99,SSE,161,5.0,10.0,49,0.00,,,0.00,,2013-05-13 16:03:00,
2013-05-13 11:11:00,67.0,47.0,29.99,SSE,161,5.0,10.0,49,0.00,,,0.00,,2013-05-13 16:11:00,
2013-05-13 11:21:00,69.0,48.0,29.98,South,178,3.0,8.0,48,0.00,,,0.00,,2013-05-13 16:21:00,
2013-05-13 11:33:00,70.0,48.0,29.99,South,188,3.0,12.0,46,0.00,,,0.00,,2013-05-13 16:33:00,
2013-05-13 11:42:00,72.0,48.0,29.98,South,177,2.0,10.0,43,0.00,,,0.00,,2013-05-13 16:42:00,
2013-05-13 11:53:00,72.0,48.0,29.98,South,177,2.0,10.0,43,0.00,,,0.00,,2013-05-13 16:53:00,
2013-05-13 12:02:00,74.0,48.0,29.98,SSE,167,5.0,12.0,40,0.00,,,0.00,,2013-05-13 17:02:00,
2013-05-13 12:12:00,74.0,48.0,29.98,SSE,167,5.0,12.0,40,0.00,,,0.00,,2013-05-13 17:12:00,
2013-05-13 12:21:00,76.0,48.0,29.97,South,177,2.0,10.0,37,0.00,,,0.00,,2013-05-13 17:21:00,
2013-05-13 12:32:00,77.0,47.0,29.97,South,188,3.0,10.0,35,0.00,,,0.00,,2013-05-13 17:32:00,
2013-05-13 12:42:00,77.0,47.0,29.97,South,188,3.0,10.0,35,0.00,,,0.00,,2013-05-13 17:42:00,
2013-05-13 12:54:00,78.0,44.0,29.96,South,179,2.0,12.0,30,0.00,,,0.00,,2013-05-13 17:54:00,
2013-05-13 13:03:00,79.0,44.0,29.96,SW,232,2.0,7.0,29,0.00,,,0.00,,2013-05-13 18:03:00,
2013-05-13 13:12:00,79.0,44.0,29.96,SW,232,2.0,7.0,29,0.00,,,0.00,,2013-05-13 18:12:00,
2013-05-13 13:23:00,79.0,43.0,29.95,SSW,202,3.0,11.0,28,0.00,,,0.00,,2013-05-13 18:23:00,
2013-05-13 13:32:00,80.0,43.0,29.94,SSE,159,3.0,13.0,27,0.00,,,0.00,,2013-05-13 18:32:00,
2013-05-13 13:42:00,81.0,43.0,29.94,SSW,202,4.0,18.0,26,0.00,,,0.00,,2013-05-13 18:42:00,
2013-05-13 13:52:00,81.0,43.0,29.94,SSW,202,4.0,18.0,26,0.00,,,0.00,,2013-05-13 18:52:00,
2013-05-13 14:01:00,81.0,41.0,29.93,SSE,157,3.0,9.0,24,0.00,,,0.00,,2013-05-13 19:01:00,
2013-05-13 14:11:00,81.0,41.0,29.93,SSE,157,3.0,9.0,24,0.00,,,0.00,,2013-05-13 19:11:00,
2013-05-13 14:21:00,81.0,42.0,29.93,SSE,166,5.0,12.0,25,0.00,,,0.00,,2013-05-13 19:21:00,
2013-05-13 14:32:00,82.0,44.0,29.92,South,179,3.0,12.0,26,0.00,,,0.00,,2013-05-13 19:32:00,
2013-05-13 14:44:00,82.0,44.0,29.92,South,179,3.0,12.0,26,0.00,,,0.00,,2013-05-13 19:44:00,
2013-05-13 14:53:00,83.0,46.0,29.92,WSW,237,3.0,14.0,27,0.00,,,0.00,,2013-05-13 19:53:00,
2013-05-13 15:01:00,83.0,44.0,29.91,SW,225,5.0,15.0,25,0.00,,,0.00,,2013-05-13 20:01:00,
2013-05-13 15:11:00,83.0,44.0,29.91,SW,225,5.0,15.0,25,0.00,,,0.00,,2013-05-13 20:11:00,
2013-05-13 15:23:00,83.0,45.0,29.91,SE,146,4.0,18.0,26,0.00,,,0.00,,2013-05-13 20:23:00,
2013-05-13 15:33:00,84.0,44.0,29.91,East,80,3.0,12.0,25,0.00,,,0.00,,2013-05-13 20:33:00,
2013-05-13 15:44:00,84.0,44.0,29.91,East,80,3.0,12.0,25,0.00,,,0.00,,2013-05-13 20:44:00,
2013-05-13 15:53:00,84.0,44.0,29.90,South,170,5.0,16.0,25,0.00,,,0.00,,2013-05-13 20:53:00,
2013-05-13 16:03:00,84.0,44.0,29.89,SW,226,5.0,12.0,25,0.00,,,0.00,,2013-05-13 21:03:00,
2013-05-13 16:14:00,84.0,44.0,29.89,SW,226,5.0,12.0,25,0.00,,,0.00,,2013-05-13 21:14:00,
2013-05-13 16:23:00,84.0,45.0,29.88,South,173,6.0,15.0,26,0.00,,,0.00,,2013-05-13 21:23:00,
2013-05-13 16:33:00,85.0,48.0,29.87,WSW,254,4.0,15.0,28,0.00,,,0.00,,2013-05-13 21:33:00,
2013-05-13 16:43:00,85.0,48.0,29.87,WSW,254,4.0,15.0,28,0.00,,,0.00,,2013-05-13 21:43:00,
2013-05-13 16:53:00,85.0,49.0,29.87,SW,227,4.0,14.0,29,0.00,,,0.00,,2013-05-13 21:53:00,
2013-05-13 17:02:00,85.0,50.0,29.86,South,185,5.0,14.0,30,0.00,,,0.00,,2013-05-13 22:02:00,
2013-05-13 17:12:00,85.0,50.0,29.86,South,185,5.0,14.0,30,0.00,,,0.00,,2013-05-13 22:12:00,
2013-05-13 17:23:00,85.0,51.0,29.85,ESE,123,5.0,14.0,31,0.00,,,0.00,,2013-05-13 22:23:00,
2013-05-13 17:32:00,85.0,51.0,29.85,South,173,4.0,13.0,31,0.00,,,0.00,,2013-05-13 22:32:00,
2013-05-13 17:42:00,85.0,52.0,29.84,SSW,207,4.0,14.0,32,0.00,,,0.00,,2013-05-13 22:42:00,
2013-05-13 17:52:00,85.0,52.0,29.84,SSW,207,4.0,14.0,32,0.00,,,0.00,,2013-05-13 22:52:00,
2013-05-13 18:02:00,85.0,52.0,29.84,South,171,4.0,9.0,32,0.00,,,0.00,,2013-05-13 23:02:00,
2013-05-13 18:12:00,85.0,52.0,29.84,South,171,4.0,9.0,32,0.00,,,0.00,,2013-05-13 23:12:00,
2013-05-13 18:23:00,85.0,53.0,29.83,SW,215,3.0,17.0,33,0.00,,,0.00,,2013-05-13 23:23:00,
2013-05-13 18:33:00,85.0,53.0,29.83,SSE,167,3.0,11.0,34,0.00,,,0.00,,2013-05-13 23:33:00,
2013-05-13 18:42:00,85.0,53.0,29.83,SSE,167,3.0,11.0,34,0.00,,,0.00,,2013-05-13 23:42:00,
2013-05-13 18:54:00,84.0,53.0,29.83,SE,130,3.0,10.0,35,0.00,,,0.00,,2013-05-13 23:54:00,
2013-05-13 19:02:00,84.0,54.0,29.82,SW,225,3.0,8.0,36,0.00,,,0.00,,2013-05-14 00:02:00,
2013-05-13 19:12:00,84.0,54.0,29.82,SW,225,3.0,8.0,36,0.00,,,0.00,,2013-05-14 00:12:00,
2013-05-13 19:22:00,83.0,54.0,29.82,SW,215,3.0,9.0,37,0.00,,,0.00,,2013-05-14 00:22:00,
2013-05-13 19:31:00,82.0,55.0,29.82,South,173,2.0,12.0,39,0.00,,,0.00,,2013-05-14 00:31:00,
2013-05-13 19:41:00,82.0,55.0,29.82,South,173,2.0,12.0,39,0.00,,,0.00,,2013-05-14 00:41:00,
2013-05-13 19:52:00,81.0,55.0,29.81,SSE,168,2.0,8.0,41,0.00,,,0.00,,2013-05-14 00:52:00,
2013-05-13 20:01:00,80.0,55.0,29.81,SW,232,3.0,10.0,42,0.00,,,0.00,,2013-05-14 01:01:00,
2013-05-13 20:11:00,80.0,55.0,29.81,SW,232,3.0,10.0,42,0.00,,,0.00,,2013-05-14 01:11:00,
2013-05-13 20:21:00,79.0,55.0,29.81,South,180,2.0,8.0,44,0.00,,,0.00,,2013-05-14 01:21:00,
2013-05-13 20:32:00,78.0,55.0,29.81,South,182,2.0,7.0,45,0.00,,,0.00,,2013-05-14 01:32:00,
2013-05-13 20:43:00,78.0,55.0,29.81,South,182,2.0,7.0,45,0.00,,,0.00,,2013-05-14 01:43:00,
2013-05-13 20:53:00,77.0,55.0,29.81,SSW,207,2.0,9.0,46,0.00,,,0.00,,2013-05-14 01:53:00,
2013-05-13 21:02:00,76.0,54.0,29.81,South,190,1.0,6.0,47,0.00,,,0.00,,2013-05-14 02:02:00,
2013-05-13 21:11:00,76.0,54.0,29.81,South,190,1.0,6.0,47,0.00,,,0.00,,2013-05-14 02:11:00,
2013-05-13 21:22:00,75.0,54.0,29.81,SSW,196,1.0,8.0,48,0.00,,,0.00,,2013-05-14 02:22:00,
2013-05-13 21:32:00,74.0,54.0,29.81,SW,214,2.0,7.0,49,0.00,,,0.00,,2013-05-14 02:32:00,
2013-05-13 21:42:00,74.0,54.0,29.81,SW,214,2.0,7.0,49,0.00,,,0.00,,2013-05-14 02:42:00,
2013-05-13 21:52:00,74.0,54.0,29.82,South,178,1.0,7.0,50,0.00,,,0.00,,2013-05-14 02:52:00,
2013-05-13 22:01:00,73.0,54.0,29.82,SSW,192,2.0,6.0,51,0.00,,,0.00,,2013-05-14 03:01:00,
2013-05-13 22:11:00,73.0,54.0,29.82,SSW,192,2.0,6.0,51,0.00,,,0.00,,2013-05-14 03:11:00,
2013-05-13 22:21:00,72.0,53.0,29.82,SW,232,2.0,7.0,52,0.00,,,0.00,,2013-05-14 03:21:00,
2013-05-13 22:33:00,71.0,54.0,29.82,SW,214,1.0,5.0,54,0.00,,,0.00,,2013-05-14 03:33:00,
2013-05-13 22:42:00,71.0,54.0,29.82,SW,214,1.0,5.0,54,0.00,,,0.00,,2013-05-14 03:42:00,
2013-05-13 22:53:00,70.0,54.0,29.82,SSW,204,0.0,4.0,56,0.00,,,0.00,,2013-05-14 03:53:00,
2013-05-13 23:02:00,70.0,55.0,29.82,SSW,202,0.0,4.0,58,0.00,,,0.00,,2013-05-14 04:02:00,
2013-05-13 23:13:00,70.0,55.0,29.82,SSW,202,0.0,4.0,58,0.00,,,0.00,,2013-05-14 04:13:00,
2013-05-13 23:23:00,69.0,55.0,29.82,South,178,1.0,4.0,60,0.00,,,0.00,,2013-05-14 04:23:00,
2013-05-13 23:32:00,68.0,54.0,29.81,South,188,1.0,4.0,62,0.00,,,0.00,,2013-05-14 04:32:00,
2013-05-13 23:43:00,68.0,54.0,29.81,South,188,1.0,4.0,62,0.00,,,0.00,,2013-05-14 04:43:00,
2013-05-13 23:53:00,67.0,54.0,29.81,SSE,167,0.0,5.0,64,0.00,,,0.00,,2013-05-14 04:53:00,